Location: Ferchesar
(52.6477°N, 12.4298°E)
Time: 20:31:14
(UTC+02:00)

Transit 4A - Pass Details

Date: 07 March 2021
Orbit: 868 x 976 km, 66.8° (Epoch: 10 April)

Event Time Altitude Azimuth Distance (km) Brightness Sun altitude
Rises 12:50:03 0° 274° (W) 3,650 11.1 32.0°
Reaches altitude 10° 12:53:07 10° 287° (WNW) 2,691 10.3 31.9°
Maximum altitude 12:58:15 26° 342° (NNW) 1,789 9.2 31.7°
Drops below altitude 10° 13:03:17 10° 37° (NE) 2,636 9.9 31.6°
Sets 13:06:16 0° 51° (NE) 3,561 10.5 31.5°
